UAL2316 KLAS-KLAX

Flight info

Callsign UAL2316
Flight time 0h 35m
Altitude 28000
Route RADYR2 BLAQQ SHTNR ANJLL4
Aircraft B38M/M-SDE1FGHILORVWXY/HB1

Departure

Time 2026-05-07 06:37
Airport Harry Reid International Airport (KLAS)

Arrival

Time 2026-05-07 07:13
Airport Los Angeles International Airport (KLAX)
Time Latitude Longitude Altitude Speed Heading
2026-05-07 06:14 36.08288 -115.14039 2096 ft 0 kts 118°
2026-05-07 06:23 36.08291 -115.14047 2096 ft 2 kts 118°
2026-05-07 06:24 36.08300 -115.14068 2096 ft 3 kts 118°
2026-05-07 06:24 36.08310 -115.14090 2096 ft 3 kts 118°
2026-05-07 06:24 36.08319 -115.14112 2095 ft 3 kts 118°
2026-05-07 06:24 36.08328 -115.14133 2095 ft 2 kts 118°
2026-05-07 06:25 36.08330 -115.14137 2095 ft 1 kts 118°
2026-05-07 06:27 36.08324 -115.14135 2095 ft 2 kts 172°
2026-05-07 06:27 36.08297 -115.14144 2097 ft 9 kts 194°
2026-05-07 06:27 36.08184 -115.14159 2097 ft 22 kts 180°
2026-05-07 06:28 36.08021 -115.14159 2097 ft 24 kts 180°
2026-05-07 06:28 36.07851 -115.14148 2097 ft 22 kts 149°
2026-05-07 06:28 36.07827 -115.13985 2096 ft 21 kts 90°
2026-05-07 06:28 36.07828 -115.13802 2095 ft 22 kts 90°
2026-05-07 06:29 36.07828 -115.13602 2094 ft 23 kts 89°
2026-05-07 06:29 36.07828 -115.13423 2092 ft 19 kts 90°
2026-05-07 06:29 36.07828 -115.13275 2090 ft 19 kts 89°
2026-05-07 06:29 36.07828 -115.13129 2085 ft 16 kts 90°
2026-05-07 06:30 36.07828 -115.13023 2081 ft 12 kts 90°
2026-05-07 06:30 36.07828 -115.12894 2075 ft 18 kts 91°
2026-05-07 06:30 36.07828 -115.12767 2070 ft 14 kts 90°
2026-05-07 06:30 36.07829 -115.12628 2065 ft 19 kts 90°
2026-05-07 06:31 36.07829 -115.12446 2059 ft 24 kts 90°
2026-05-07 06:31 36.07829 -115.12326 2057 ft 7 kts 90°
2026-05-07 06:31 36.07823 -115.12270 2056 ft 3 kts 109°
2026-05-07 06:31 36.07804 -115.12232 2054 ft 7 kts 127°
2026-05-07 06:32 36.07784 -115.12201 2053 ft 1 kts 128°
2026-05-07 06:32 36.07783 -115.12200 2053 ft 0 kts 128°
2026-05-07 06:32 36.07778 -115.12192 2053 ft 4 kts 128°
2026-05-07 06:33 36.07752 -115.12152 2051 ft 8 kts 131°
2026-05-07 06:33 36.07744 -115.12143 2051 ft 0 kts 138°
2026-05-07 06:36 36.07741 -115.12139 2051 ft 2 kts 141°
2026-05-07 06:36 36.07703 -115.12121 2052 ft 12 kts 166°
2026-05-07 06:36 36.07643 -115.12220 2052 ft 21 kts 269°
2026-05-07 06:36 36.07642 -115.12673 2068 ft 90 kts 270°
2026-05-07 06:37 36.07640 -115.13726 2096 ft 153 kts 270°
2026-05-07 06:37 36.07647 -115.15119 2459 ft 179 kts 269°
2026-05-07 06:37 36.07658 -115.16750 3101 ft 198 kts 270°
2026-05-07 06:37 36.07662 -115.18508 3797 ft 214 kts 270°
2026-05-07 06:38 36.07662 -115.20469 4325 ft 244 kts 270°
2026-05-07 06:38 36.07472 -115.22609 5267 ft 247 kts 259°
2026-05-07 06:38 36.07009 -115.24695 6209 ft 263 kts 242°
2026-05-07 06:38 36.05729 -115.26383 6905 ft 281 kts 211°
2026-05-07 06:39 36.03886 -115.27312 7506 ft 292 kts 199°
2026-05-07 06:39 36.01979 -115.28158 7598 ft 290 kts 200°
2026-05-07 06:39 36.00107 -115.29004 7760 ft 291 kts 200°
2026-05-07 06:39 35.98152 -115.29670 8190 ft 292 kts 189°
2026-05-07 06:40 35.96150 -115.30099 9241 ft 295 kts 190°
2026-05-07 06:40 35.94111 -115.30573 10217 ft 301 kts 191°
2026-05-07 06:40 35.91999 -115.31079 10869 ft 319 kts 191°
2026-05-07 06:40 35.89749 -115.31629 11354 ft 340 kts 191°
2026-05-07 06:41 35.87364 -115.32219 11791 ft 360 kts 191°
2026-05-07 06:41 35.84836 -115.32847 12160 ft 380 kts 191°
2026-05-07 06:41 35.82171 -115.33511 12471 ft 400 kts 191°
2026-05-07 06:41 35.79422 -115.34195 12769 ft 417 kts 191°
2026-05-07 06:42 35.76535 -115.34914 13225 ft 427 kts 191°
2026-05-07 06:42 35.73617 -115.35639 13966 ft 430 kts 191°
2026-05-07 06:42 35.70664 -115.36373 14526 ft 435 kts 191°
2026-05-07 06:42 35.67689 -115.37111 15122 ft 438 kts 191°
2026-05-07 06:43 35.64687 -115.37856 15695 ft 442 kts 191°
2026-05-07 06:43 35.61650 -115.38550 16242 ft 446 kts 185°
2026-05-07 06:43 35.58595 -115.38540 16803 ft 446 kts 175°
2026-05-07 06:43 35.55475 -115.38360 17310 ft 451 kts 175°
2026-05-07 06:44 35.52334 -115.38157 17848 ft 454 kts 175°
2026-05-07 06:44 35.49173 -115.37936 18356 ft 457 kts 174°
2026-05-07 06:44 35.45974 -115.37885 18771 ft 463 kts 184°
2026-05-07 06:44 35.42823 -115.38781 19237 ft 468 kts 200°
2026-05-07 06:45 35.39857 -115.40461 19667 ft 472 kts 206°
2026-05-07 06:45 35.36949 -115.42246 20071 ft 476 kts 206°
2026-05-07 06:45 35.33994 -115.44095 20515 ft 479 kts 206°
2026-05-07 06:45 35.31027 -115.45974 20950 ft 482 kts 207°
2026-05-07 06:46 35.28044 -115.47873 21374 ft 485 kts 207°
2026-05-07 06:46 35.25043 -115.49785 21796 ft 488 kts 207°
2026-05-07 06:46 35.22024 -115.51708 22221 ft 491 kts 207°
2026-05-07 06:46 35.18986 -115.53641 22637 ft 494 kts 207°
2026-05-07 06:47 35.15935 -115.55582 23034 ft 497 kts 207°
2026-05-07 06:47 35.12956 -115.57747 23410 ft 500 kts 218°
2026-05-07 06:47 35.10442 -115.60595 23845 ft 500 kts 225°
2026-05-07 06:47 35.07983 -115.63623 24161 ft 504 kts 226°
2026-05-07 06:48 35.05534 -115.66692 24475 ft 506 kts 226°
2026-05-07 06:48 35.03084 -115.69797 24815 ft 509 kts 226°
2026-05-07 06:48 35.00631 -115.72921 25158 ft 511 kts 226°
2026-05-07 06:48 34.98166 -115.76064 25512 ft 514 kts 226°
2026-05-07 06:49 34.95688 -115.79220 25831 ft 516 kts 226°
2026-05-07 06:49 34.93202 -115.82385 26120 ft 518 kts 226°
2026-05-07 06:49 34.90744 -115.85510 26473 ft 518 kts 226°
2026-05-07 06:49 34.88258 -115.88668 26866 ft 517 kts 226°
2026-05-07 06:50 34.85769 -115.91827 27259 ft 516 kts 226°
2026-05-07 06:50 34.83283 -115.94980 27662 ft 516 kts 226°
2026-05-07 06:50 34.80797 -115.98130 27979 ft 516 kts 226°
2026-05-07 06:50 34.78314 -116.01275 28033 ft 517 kts 227°
2026-05-07 06:51 34.73360 -116.07593 28021 ft 516 kts 227°
2026-05-07 06:51 34.68437 -116.13858 28023 ft 516 kts 227°
2026-05-07 06:52 34.63477 -116.20159 28030 ft 516 kts 227°
2026-05-07 06:52 34.58526 -116.26437 28022 ft 516 kts 227°
2026-05-07 06:53 34.53550 -116.32735 28027 ft 516 kts 227°
2026-05-07 06:53 34.48576 -116.39019 28025 ft 516 kts 227°
2026-05-07 06:54 34.43630 -116.45259 28037 ft 515 kts 228°
2026-05-07 06:54 34.41521 -116.48602 28050 ft 490 kts 242°
2026-05-07 06:54 34.39955 -116.52164 28080 ft 470 kts 244°
2026-05-07 06:55 34.37026 -116.59066 28057 ft 456 kts 245°
2026-05-07 06:55 34.34209 -116.65861 28043 ft 454 kts 246°
2026-05-07 06:56 34.31449 -116.72714 27932 ft 452 kts 246°
2026-05-07 06:56 34.30079 -116.76118 27405 ft 449 kts 246°
2026-05-07 06:56 34.28715 -116.79501 26890 ft 446 kts 246°
2026-05-07 06:57 34.27358 -116.82863 26354 ft 444 kts 246°
2026-05-07 06:57 34.26006 -116.86210 25838 ft 442 kts 246°
2026-05-07 06:57 34.24660 -116.89538 25321 ft 440 kts 246°
2026-05-07 06:57 34.23316 -116.92859 24795 ft 439 kts 246°
2026-05-07 06:58 34.21994 -116.96122 24281 ft 438 kts 246°
2026-05-07 06:58 34.20784 -116.99479 23676 ft 436 kts 255°
2026-05-07 06:58 34.19853 -117.02972 22872 ft 439 kts 255°
2026-05-07 06:58 34.18906 -117.06471 22225 ft 438 kts 254°
2026-05-07 06:59 34.17961 -117.09967 21586 ft 436 kts 254°
2026-05-07 06:59 34.17019 -117.13440 20947 ft 436 kts 254°
2026-05-07 06:59 34.16065 -117.16926 20198 ft 438 kts 253°
2026-05-07 06:59 34.15103 -117.20426 19556 ft 439 kts 253°
2026-05-07 07:00 34.14174 -117.23806 18963 ft 437 kts 253°
2026-05-07 07:00 34.13216 -117.27287 18326 ft 436 kts 253°
2026-05-07 07:00 34.12258 -117.30761 17572 ft 436 kts 253°
2026-05-07 07:00 34.11299 -117.34241 16838 ft 437 kts 253°
2026-05-07 07:01 34.10367 -117.37723 16123 ft 436 kts 254°
2026-05-07 07:01 34.09496 -117.41220 15453 ft 434 kts 254°
2026-05-07 07:01 34.08618 -117.44705 14828 ft 432 kts 254°
2026-05-07 07:01 34.07754 -117.48116 14188 ft 418 kts 253°
2026-05-07 07:02 34.06777 -117.51340 13576 ft 403 kts 245°
2026-05-07 07:02 34.05657 -117.54366 13062 ft 387 kts 246°
2026-05-07 07:02 34.04614 -117.57247 12631 ft 372 kts 247°
2026-05-07 07:02 34.03610 -117.60058 12201 ft 359 kts 247°
2026-05-07 07:03 34.02642 -117.62783 11775 ft 347 kts 247°
2026-05-07 07:03 34.01708 -117.65418 11379 ft 337 kts 247°
2026-05-07 07:03 34.00827 -117.67988 10972 ft 327 kts 253°
2026-05-07 07:03 34.00445 -117.70637 10541 ft 317 kts 265°
2026-05-07 07:04 34.00204 -117.73245 10186 ft 311 kts 265°
2026-05-07 07:04 33.99952 -117.75840 9781 ft 312 kts 265°
2026-05-07 07:04 33.99697 -117.78448 9330 ft 315 kts 264°
2026-05-07 07:04 33.99441 -117.81060 8934 ft 311 kts 264°
2026-05-07 07:05 33.99195 -117.83593 8544 ft 305 kts 264°
2026-05-07 07:05 33.98952 -117.86092 8166 ft 296 kts 264°
2026-05-07 07:05 33.98716 -117.88512 7838 ft 286 kts 264°
2026-05-07 07:05 33.98506 -117.90857 7506 ft 281 kts 266°
2026-05-07 07:06 33.98318 -117.93207 7170 ft 282 kts 265°
2026-05-07 07:06 33.98105 -117.95556 6830 ft 283 kts 264°
2026-05-07 07:06 33.97875 -117.97900 6481 ft 279 kts 264°
2026-05-07 07:06 33.97645 -118.00186 6130 ft 271 kts 264°
2026-05-07 07:07 33.97419 -118.02401 5786 ft 263 kts 264°
2026-05-07 07:07 33.97202 -118.04530 5451 ft 256 kts 264°
2026-05-07 07:07 33.96987 -118.06630 5136 ft 251 kts 264°
2026-05-07 07:07 33.96775 -118.08705 4816 ft 248 kts 264°
2026-05-07 07:08 33.96564 -118.10756 4541 ft 246 kts 264°
2026-05-07 07:08 33.96354 -118.12799 4208 ft 243 kts 264°
2026-05-07 07:08 33.96151 -118.14778 3912 ft 235 kts 264°
2026-05-07 07:08 33.95952 -118.16717 3598 ft 232 kts 263°
2026-05-07 07:09 33.95754 -118.18649 3299 ft 231 kts 263°
2026-05-07 07:09 33.95557 -118.20565 2989 ft 231 kts 263°
2026-05-07 07:09 33.95365 -118.22430 2690 ft 224 kts 263°
2026-05-07 07:09 33.95176 -118.24278 2396 ft 221 kts 263°
2026-05-07 07:10 33.94995 -118.26041 2122 ft 201 kts 263°
2026-05-07 07:10 33.94835 -118.27601 1883 ft 176 kts 263°
2026-05-07 07:10 33.94694 -118.28976 1667 ft 157 kts 263°
2026-05-07 07:10 33.94560 -118.30274 1437 ft 155 kts 262°
2026-05-07 07:11 33.94428 -118.31558 1220 ft 154 kts 262°
2026-05-07 07:11 33.94298 -118.32831 1014 ft 153 kts 262°
2026-05-07 07:11 33.94166 -118.34086 803 ft 149 kts 262°
2026-05-07 07:11 33.94033 -118.35313 613 ft 146 kts 262°
2026-05-07 07:12 33.93912 -118.36515 443 ft 146 kts 263°
2026-05-07 07:12 33.93791 -118.37721 256 ft 144 kts 263°
2026-05-07 07:12 33.93673 -118.38887 105 ft 131 kts 263°
2026-05-07 07:12 33.93582 -118.39791 97 ft 77 kts 263°
2026-05-07 07:13 33.93529 -118.40343 97 ft 57 kts 269°
2026-05-07 07:13 33.93587 -118.40623 96 ft 32 kts 285°
2026-05-07 07:13 33.93595 -118.40801 98 ft 19 kts 279°
2026-05-07 07:13 33.93686 -118.40899 98 ft 20 kts 353°
2026-05-07 07:14 33.93791 -118.40856 96 ft 15 kts 77°
2026-05-07 07:14 33.93805 -118.40722 97 ft 18 kts 83°
2026-05-07 07:14 33.93821 -118.40566 97 ft 20 kts 83°
2026-05-07 07:14 33.93838 -118.40395 99 ft 22 kts 83°
2026-05-07 07:15 33.93857 -118.40208 98 ft 23 kts 83°
2026-05-07 07:15 33.93878 -118.40006 99 ft 25 kts 83°
2026-05-07 07:15 33.93895 -118.39843 98 ft 14 kts 72°
2026-05-07 07:15 33.93987 -118.39817 96 ft 16 kts 346°
2026-05-07 07:16 33.94075 -118.39825 97 ft 13 kts
2026-05-07 07:16 33.94171 -118.39837 95 ft 12 kts 353°
2026-05-07 07:16 33.94232 -118.39852 96 ft 4 kts 302°
2026-05-07 07:16 33.94231 -118.39888 96 ft 4 kts 265°
2026-05-07 07:17 33.94230 -118.39905 98 ft 0 kts 263°